Flag for U.S.A. Weather past 2 weeks in Fort Worth, Texas, U.S.A.

69 °F

Heavy rain. Fog.

Feels Like: 69 °F
Forecast: 43 / 70 °F
Wind: 3 mph from Southeast

Location: Meacham International Airport

Current Time: Nov 27, 2015 at 1:30:11 AM

Latest Report: Nov 27, 2015 at 1:03 AM

Visibility: 2 mi

Pressure: 30.06 "Hg

Humidity: 96%

Dew point: 68 °F

Location of Fort WorthLocation

Historic Weather in Fort Worth — Graph


Fort Worth temperature yesterday

Maximum temperature yesterday: 71 °F (at 11:53 AM)
Minimum temperature yesterday: 67 °F (at 3:53 AM)
Average temperature yesterday: 69 °F

Past Weeks' High & Low Weather Summary

High76 °F (Nov 17, 2:53 AM)96% (Nov 16, 4:00 PM)30.37 "Hg (Nov 16, 4:00 PM)
Low32 °F (Nov 22, 4:53 AM)26% (Nov 12, 1:53 PM)29.45 "Hg (Nov 17, 2:53 AM)
Average58 °F63%30.07 "Hg
* Reported Nov 11 11:53 PM — Nov 26 11:53 PM, Fort Worth, Weather by CustomWeather, © 2015

Note: Actual official high and low records may vary slightly from our data, if they occured in-between our weather recording intervals... More about our weather records


Fort Worth weather history for previous 24 hours

Time TempWeatherWind HumidityBarometerVisibility
11:53 PM
Thu, Nov 26
70 °FStrong thunderstorms. Fog.No wind93%30.06 "Hg1 mi
10:53 PM69 °FHeavy rain. Fog.12 mph93%30.06 "Hg1 mi
9:53 PM69 °FMostly cloudy.3 mph93%30.07 "Hg10 mi
9:02 PM69 °FHeavy rain. Fog.8 mph93%30.09 "Hg2 mi
7:53 PM69 °FHeavy rain. Fog.10 mph93%30.06 "Hg2 mi
6:53 PM70 °FRain. Fog.16 mph90%30.05 "Hg2 mi
5:53 PM70 °FLight rain. Mostly cloudy.10 mph90%30.06 "Hg2 mi
4:53 PM70 °FLight rain. Fog.15 mph90%30.03 "Hg2 mi
3:53 PM69 °FLight rain. Fog.16 mph93%30.02 "Hg4 mi
2:53 PM69 °FLight rain. Fog.18 mph90%30.03 "Hg5 mi
1:53 PM69 °FLight rain. Fog.12 mph90%30.05 "Hg5 mi
12:53 PM71 °FRain. Mostly cloudy.16 mph81%30.08 "Hg7 mi
11:53 AM71 °FMostly cloudy.20 mph78%30.09 "Hg10 mi
10:53 AM69 °FLight rain. Overcast.20 mph84%30.12 "Hg10 mi
9:53 AM69 °FOvercast.16 mph84%30.13 "Hg10 mi
8:53 AM68 °FOvercast.17 mph87%30.11 "Hg10 mi
7:53 AM68 °FLow clouds.17 mph84%30.11 "Hg10 mi
6:53 AM67 °FLow clouds.17 mph87%30.09 "Hg10 mi
5:53 AM67 °FLow clouds.17 mph87%30.07 "Hg10 mi
4:53 AM67 °FOvercast.16 mph87%30.06 "Hg10 mi
3:53 AM67 °FOvercast.13 mph85%30.07 "Hg10 mi
2:53 AM68 °FOvercast.14 mph82%30.07 "Hg10 mi
1:53 AM68 °FMostly cloudy.17 mph82%30.07 "Hg10 mi
Weather by CustomWeather, © 2015

See weather overviewHow to use our weather pages